Flag for Cameroon Weather past 2 weeks in Bamenda, Cameroon

Now
77 °F

Thunderstorms. Broken clouds.


Feels Like: 78 °F
Forecast: 61 / 78 °F
Wind: No wind

Location: Douala Obs.

Current Time: Sep 19, 2014 at 9:56:35 AM

Latest Report: Sep 19, 2014 at 9:00 AM


Visibility: 4 mi

Pressure: 29.98 "Hg

Humidity: 94%

Dew point: 75 °F

Location of BamendaLocation

Historic Weather in Bamenda — Graph

°F

Bamenda temperature yesterday

Maximum temperature yesterday: 86 °F (at 2:00 PM)
Minimum temperature yesterday: 77 °F (at 12:00 AM)
Average temperature yesterday: 80 °F

Past Weeks' High & Low Weather Summary

 TemperatureHumidityPressure
High90 °F (Sep 12, 1:00 PM)100% (Sep 4, 8:00 AM)30.01 "Hg (Sep 4, 8:00 AM)
Low73 °F (Sep 17, 3:00 AM)59% (Sep 14, 3:00 PM)29.80 "Hg (Sep 10, 5:00 PM)
Average79 °F89%29.91 "Hg
* Reported Sep 4 8:00 AM — Sep 19 8:00 AM, Bamenda, Weather by CustomWeather, © 2014

Note: Actual official high and low records may vary slightly from our data, if they occured in-between our weather recording intervals... More about our weather records

Advertising

Bamenda weather history for previous 24 hours

 ConditionsComfort  
Time TempWeatherWind HumidityBarometerVisibility
8:00 AM
Sep 19
75 °FThunderstorms. Broken clouds.No wind94%29.95 "HgN/A
7:00 AM75 °FThunderstorms. More clouds than sun.No wind94%29.92 "Hg5 mi
6:00 AM75 °FThunderstorms. Mostly cloudy.5 mph94%29.92 "Hg4 mi
5:00 AM75 °FThunderstorms. Partly cloudy.7 mph100%29.89 "Hg4 mi
4:00 AM75 °FThunderstorms. Partly cloudy.No wind100%29.89 "Hg4 mi
3:00 AM77 °FThunderstorms. Partly cloudy.No wind94%29.86 "Hg5 mi
2:00 AM79 °FThunderstorms. Mostly cloudy.No wind94%29.89 "Hg4 mi
1:00 AM77 °FThunderstorms. Mostly cloudy.No wind94%29.92 "Hg4 mi
12:00 AM79 °FThunderstorms. Mostly cloudy.No wind94%29.95 "Hg2 mi
11:00 PM
Sep 18
79 °FThunderstorms. Passing clouds.No wind94%29.95 "HgN/A
10:00 PM79 °FThunderstorms. Passing clouds.No wind94%29.92 "HgN/A
9:00 PM79 °FThunderstorms. Passing clouds.No wind94%29.89 "HgN/A
8:00 PM81 °FThunderstorms. Passing clouds.No wind84%29.89 "HgN/A
7:00 PM81 °FThunderstorms. Partly cloudy.9 mph84%29.86 "HgN/A
6:00 PM81 °FThunderstorms. Broken clouds.9 mph84%29.83 "HgN/A
5:00 PM84 °FThunderstorms. Broken clouds.12 mph74%29.83 "HgN/A
4:00 PM86 °FBroken clouds.12 mph70%29.83 "HgN/A
3:00 PM86 °FBroken clouds.12 mph70%29.83 "HgN/A
2:00 PM86 °FBroken clouds.9 mph70%29.86 "HgN/A
1:00 PM84 °FPartly sunny.7 mph74%29.95 "HgN/A
12:00 PM84 °FThunderstorms. Partly sunny.9 mph74%29.95 "HgN/A
11:00 AM82 °FThunderstorms. Partly sunny.No wind79%29.95 "HgN/A
10:00 AM82 °FThunderstorms. Partly sunny.No wind79%29.95 "HgN/A
9:00 AM79 °FThunderstorms. Broken clouds.No wind89%29.95 "HgN/A
Weather by CustomWeather, © 2014

See weather overviewHow to use our weather pages